ONEWEB-0277 (48995 NORAD) Tracking and Keplerian Element Data

This shows tracking and keplerian element data for the satellite.

Feedback or suggestion? Click here.




ElementValue
Catalog48995
NameONEWEB-0277
Epoch Orbit362
Epoch Day210.91668981
Epoch Year2021
RAAN227.5541
Inclination87.4351
Eccentricity0.0010351
Argument of Perigee168.6204
Mean Anonmoly336.815
Mean Motion14.94899753
Decay Rate-0.01369829
L11 48995U 21060AE 21210.91668981 -.01369829 00000-0 -13692+0 0 9998
L22 48995 87.4351 227.5541 0010351 168.6204 336.8150 14.94899753 3624

Live tracking and technical data element details for ONEWEB-0277 (NORAD 48995). ONEWEB-0277 can be tracked NOW for your location showing map with azimuth and elevation plus other details from your city location.

Track the satellite on the map from your city or location and see movement details for azimuth, elevation, latitude, longitude, range, height, and movement on the map or in text.







IsCatalogInMostPopularTable: catalog: 48995, numindb: 4
Update: records affected: 1



GetName: 48995 ONEWEB-0277

Hit Count: updated at: Sat, 31 Jul 2021 15:46:09 GMT